Date String (YYYY-MM-DD hh:mm:ss) UTC,Instrument flags,Ambient pressure (hPa),Sample flow (lpm),Bypass flow (lpm),Sample temperature (°C),Ambient temperature (°C),ASC tube jacket temperature (°C),LED temperature (°C),Box temperature (°C),Sample RH (%),Span deviation,Mass concentration (μg/m³),Mass concentration (μg/m³),Mass concentration (μg/m³)
DateTimeUTC,F1_M11,P_M11,Q1_M11,Q2_M11,T1_M11,T2_M11,T3_M11,T4_M11,T5_M11,U1_M11,ZSPAN_M11,X0_M11,X2_M11,X1_M11
2022-04-03 05:00:00,,0821.8,5.00,0.00,29.9,29.0,00.0,38.8,31.6,08.6,0000.0,0014.11,0004.84,0003.29
2022-04-03 05:01:00,,0821.8,5.01,0.00,29.9,29.0,00.0,38.8,31.6,08.6,0000.0,0014.56,0004.88,0003.37
2022-04-03 05:02:00,,0821.9,4.99,0.00,29.9,29.0,00.0,38.8,31.6,08.5,0000.0,0013.64,0004.88,0003.42
2022-04-03 05:03:00,,0821.9,5.00,0.00,29.9,29.0,00.0,38.8,31.6,08.5,0000.0,0014.15,0004.96,0003.48
2022-04-03 05:04:00,,0821.9,4.99,0.00,29.9,29.0,00.0,38.8,31.6,08.6,0000.0,0015.08,0005.10,0003.56
2022-04-03 05:05:00,,0821.9,5.02,0.00,29.9,29.0,00.0,38.8,31.6,08.6,0000.0,0015.27,0005.19,0003.66
2022-04-03 05:06:00,,0821.8,4.99,0.00,29.9,29.0,00.0,38.8,31.6,08.7,0000.0,0015.50,0005.24,0003.74
2022-04-03 05:07:00,,0821.8,4.98,0.00,29.9,29.0,00.0,38.8,31.6,08.7,0000.0,0015.94,0005.30,0003.81
2022-04-03 05:08:00,,0821.8,5.02,0.00,29.9,29.0,00.0,38.8,31.6,08.7,0000.0,0016.16,0005.36,0003.85
2022-04-03 05:09:00,,0821.8,4.99,0.00,29.9,29.0,00.0,38.8,31.6,08.7,0000.0,0016.71,0005.46,0003.90
2022-04-03 05:10:00,,0821.8,5.00,0.00,29.9,29.0,00.0,38.8,31.6,08.7,0000.0,0017.02,0005.54,0003.92
2022-04-03 05:11:00,,0821.8,5.01,0.00,29.9,29.0,00.0,38.8,31.6,08.7,0000.0,0016.69,0005.60,0003.92
2022-04-03 05:12:00,,0821.8,4.99,0.00,29.9,29.0,00.0,38.8,31.6,08.6,0000.0,0018.30,0005.64,0003.92
2022-04-03 05:13:00,,0821.8,5.00,0.00,29.9,29.0,00.0,38.8,31.6,08.7,0000.0,0018.36,0005.67,0003.95
2022-04-03 05:14:00,,0821.8,5.01,0.00,29.9,29.0,00.0,38.8,31.6,08.6,0000.0,0017.58,0005.65,0003.96
2022-04-03 05:15:00,,0821.8,5.00,0.00,29.9,29.0,00.0,38.8,31.6,08.7,0000.0,0016.35,0005.57,0003.94
2022-04-03 05:16:00,,0821.8,4.99,0.00,29.9,28.9,00.0,38.8,31.6,08.6,0000.0,0016.13,0005.54,0003.89
2022-04-03 05:17:00,,0821.7,5.00,0.00,29.9,28.9,00.0,38.8,31.5,08.6,0000.0,0015.81,0005.49,0003.83
2022-04-03 05:18:00,,0821.8,4.99,0.00,29.8,28.9,00.0,38.8,31.5,08.6,0000.0,0015.58,0005.47,0003.79
2022-04-03 05:19:00,,0821.8,5.01,0.00,29.8,28.9,00.0,38.8,31.5,08.6,0000.0,0015.44,0005.45,0003.76
2022-04-03 05:20:00,,0821.8,5.00,0.00,29.8,28.9,00.0,38.8,31.5,08.6,0000.0,0014.88,0005.36,0003.72
2022-04-03 05:21:00,,0821.8,4.98,0.00,29.8,28.9,00.0,38.8,31.5,08.6,0000.0,0014.03,0005.25,0003.68
2022-04-03 05:22:00,,0821.8,5.00,0.00,29.8,28.9,00.0,38.8,31.5,08.6,0000.0,0013.39,0005.18,0003.64
2022-04-03 05:23:00,,0821.8,5.01,0.00,29.8,28.9,00.0,38.8,31.5,08.6,0000.0,0011.59,0005.09,0003.59
2022-04-03 05:24:00,,0821.8,4.99,0.00,29.8,28.9,00.0,38.8,31.5,08.6,0000.0,0011.63,0005.06,0003.55
2022-04-03 05:25:00,,0821.8,4.99,0.00,29.8,28.9,00.0,38.8,31.5,08.6,0000.0,0011.56,0005.03,0003.54
2022-04-03 05:26:00,,0821.8,5.01,0.00,29.8,28.9,00.0,38.8,31.5,08.6,0000.0,0011.70,0005.10,0003.56
2022-04-03 05:27:00,,0821.7,5.00,0.00,29.8,28.9,00.0,38.8,31.5,08.6,0000.0,0011.71,0005.10,0003.59
2022-04-03 05:28:00,,0821.7,5.00,0.00,29.8,28.9,00.0,38.8,31.5,08.6,0000.0,0012.04,0005.13,0003.60
2022-04-03 05:29:00,,0821.7,5.01,0.00,29.8,28.9,00.0,38.8,31.5,08.6,0000.0,0012.45,0005.07,0003.61
2022-04-03 05:30:00,,0821.8,5.01,0.00,29.8,28.9,00.0,38.8,31.5,08.6,0000.0,0012.46,0005.07,0003.61
2022-04-03 05:31:00,,0821.8,4.99,0.00,29.8,28.9,00.0,38.8,31.5,08.6,0000.0,0012.24,0005.08,0003.63
2022-04-03 05:32:00,,0821.8,4.99,0.00,29.8,28.9,00.0,38.8,31.5,08.6,0000.0,0012.11,0005.07,0003.64
2022-04-03 05:33:00,,0821.8,5.01,0.00,29.8,28.9,00.0,38.8,31.5,08.6,0000.0,0013.36,0005.16,0003.65
2022-04-03 05:34:00,,0821.8,5.00,0.00,29.8,28.9,00.0,38.8,31.5,08.6,0000.0,0013.96,0005.24,0003.67
2022-04-03 05:35:00,,0821.7,4.98,0.00,29.8,28.9,00.0,38.8,31.5,08.6,0000.0,0014.19,0005.24,0003.70
2022-04-03 05:36:00,,0821.7,5.00,0.00,29.8,28.9,00.0,38.8,31.5,08.6,0000.0,0014.42,0005.22,0003.68
2022-04-03 05:37:00,,0821.7,5.02,0.00,29.8,28.9,00.0,38.8,31.5,08.6,0000.0,0014.46,0005.12,0003.64
2022-04-03 05:38:00,,0821.6,5.00,0.00,29.8,28.8,00.0,38.8,31.5,08.6,0000.0,0014.50,0005.09,0003.63
2022-04-03 05:39:00,,0821.6,4.99,0.00,29.8,28.8,00.0,38.8,31.5,08.6,0000.0,0014.37,0005.10,0003.63
2022-04-03 05:40:00,,0821.6,5.00,0.00,29.8,28.8,00.0,38.8,31.5,08.6,0000.0,0013.90,0005.14,0003.61
2022-04-03 05:41:00,,0821.7,5.01,0.00,29.8,28.8,00.0,38.8,31.5,08.6,0000.0,0013.64,0005.14,0003.59
2022-04-03 05:42:00,,0821.7,5.01,0.00,29.8,28.9,00.0,38.8,31.5,08.6,0000.0,0013.93,0005.13,0003.56
2022-04-03 05:43:00,,0821.7,5.01,0.00,29.8,28.9,00.0,38.8,31.5,08.6,0000.0,0014.22,0005.18,0003.56
2022-04-03 05:44:00,,0821.7,5.00,0.00,29.8,28.9,00.0,38.8,31.5,08.5,0000.0,0013.60,0005.14,0003.53
2022-04-03 05:45:00,,0821.7,4.99,0.00,29.8,28.9,00.0,38.8,31.5,08.5,0000.0,0012.47,0005.07,0003.52
2022-04-03 05:46:00,,0821.7,5.01,0.00,29.8,28.9,00.0,38.8,31.5,08.5,0000.0,0012.18,0005.10,0003.53
2022-04-03 05:47:00,,0821.6,5.00,0.00,29.8,28.9,00.0,38.8,31.5,08.5,0000.0,0012.28,0005.17,0003.55
2022-04-03 05:48:00,,0821.6,4.99,0.00,29.8,28.9,00.0,38.8,31.5,08.5,0000.0,0012.86,0005.26,0003.58
2022-04-03 05:49:00,,0821.7,5.01,0.00,29.8,28.9,00.0,38.8,31.5,08.5,0000.0,0012.93,0005.30,0003.59
2022-04-03 05:50:00,,0821.7,5.02,0.00,29.8,28.8,00.0,38.8,31.5,08.9,0000.0,0013.71,0005.28,0003.58
2022-04-03 05:51:00,,0821.8,4.99,0.00,29.8,28.8,00.0,38.8,31.5,09.0,0000.0,0014.43,0005.19,0003.57
2022-04-03 05:52:00,,0821.8,5.00,0.00,29.8,28.8,00.0,38.7,31.5,09.0,0000.0,0014.27,0005.13,0003.54
2022-04-03 05:53:00,,0821.7,5.00,0.00,29.8,28.8,00.0,38.7,31.5,08.9,0000.0,0014.18,0005.12,0003.53
2022-04-03 05:54:00,,0821.8,5.02,0.00,29.8,28.8,00.0,38.7,31.4,08.8,0000.0,0014.07,0005.09,0003.51
2022-04-03 05:55:00,,0821.8,4.99,0.00,29.8,28.8,00.0,38.7,31.4,08.8,0000.0,0013.98,0005.05,0003.51
2022-04-03 05:56:00,,0821.8,5.00,0.00,29.8,28.8,00.0,38.7,31.4,08.8,0000.0,0014.22,0005.06,0003.49
2022-04-03 05:57:00,,0821.8,5.02,0.00,29.8,28.8,00.0,38.7,31.4,08.8,0000.0,0014.07,0005.00,0003.46
2022-04-03 05:58:00,,0821.8,4.99,0.00,29.8,28.8,00.0,38.7,31.4,08.8,0000.0,0014.41,0004.95,0003.43
2022-04-03 05:59:00,,0821.8,5.02,0.00,29.8,28.8,00.0,38.7,31.4,08.8,0000.0,0013.58,0004.86,0003.40
